Location: Grasslands National Park East Block
(49.0708°N, 106.5295°W)
Time: 17:52:05
(UTC-06:00)

Vanguard 1 Rocket - Pass Details

Date: 30 September 2019
Orbit: 650 x 4226 km, 34.3° (Epoch: 13 October)

Event Time Altitude Azimuth Distance (km) Brightness Sun altitude
Rises 15:59:31 0° 228° (SW) 8,101 13.6 24.6°
Reaches altitude 10° 16:05:16 10° 222° (SW) 7,289 13.8 23.9°
Maximum altitude 16:28:44 45° 160° (SSE) 4,795 11.4 20.7°
Drops below altitude 10° 16:46:48 10° 97° (E) 5,782 11.1 18.1°
Sets 16:50:39 0° 91° (E) 6,392 11.2 17.5°
